Tracking 27079 objects as of 23-Mar-2023
HD Live streaming from Space Station
objects crossing your sky now

SCOUT A DEB

Track SCOUT A DEB now!
10-day predictions


NORAD ID: 5036
Int'l Code: 1970-067C
Perigee: 807.3 km
Apogee: 840.2 km
Inclination: 89.9 °
Period: 101.2 minutes
Semi major axis: 7194 km
RCS: 0.0454 m2 (small)
Launch date: August 27, 1970
Source: United States (US)
Launch site: AIR FORCE WESTERN TEST RANGE (AFWTR)

Note: This is SATELLITE DEBRIS
Your satellite tracking list
Your tracking list is empty




NASA's NSSDC Master Catalog

Two Line Element Set (TLE):
1 05036U 70067C   23081.20859950  .00003525  00000-0  15691-2 0  9995
2 05036  89.9002 261.1173 0022901 248.2486 111.6268 14.22586027687837
Source of the keplerian elements: AFSPC